Regional Weather Roundup
Issued by NWS Cleveland, OH

Home | Current Version | Previous Version | Text Only | Print | Product List | Glossary Off
Versions: 1 2 3 4 5 6 7 8 9 10 11 12 13 14 15 16 17 18 19 20 21 22 23 24 25 26 27 28 29 30 31 32 33 34 35 36 37 38 39 40 41 42 43 44 45 46 47 48 49 50

000
ASUS41 KCLE 041610
RWRCLE
OHIO REGIONAL WEATHER ROUNDUP
NATIONAL WEATHER SERVICE WILMINGTON, OH
1100 AM EST SUN DEC 04 2016

NOTE: "FAIR" INDICATES FEW OR NO CLOUDS BELOW 12,000 FEET WITH NO
SIGNIFICANT WEATHER AND/OR OBSTRUCTIONS TO VISIBILITY.

OHZ001>008-015>018-024>027-034-035-043-044-041700-
   NORTHWEST OHIO

CITY           SKY/WX    TMP DP  RH WIND       PRES   REMARKS
DEFIANCE       CLOUDY    38  28  67 E6        30.18F
FINDLAY        FAIR      38  28  67 SE10      30.18F
TOLEDO EXPRESS CLOUDY    36  28  73 S6        30.20F
TOLEDO EXEC    CLOUDY    38  30  73 SE8       30.22F
LIMA           CLOUDY    37  30  75 SE8       30.16F
$$

OHZ009>014-019>023-028>033-038-089-041700-
   NORTHEAST OHIO

CITY           SKY/WX    TMP DP  RH WIND       PRES   REMARKS
CLE-HOPKINS    PTSUNNY   39  25  57 S7        30.25F
CLE-LAKEFRONT  FAIR      40  25  55 SE7       30.22F
CUY CO. ARPT   PTSUNNY   39  28  65 SW6       30.23F
LORAIN-ELYRIA  FAIR      37  24  59 S8        30.23F
ASHTABULA      FAIR      38  28  67 S3        30.24F
AKRON-CANTON   CLOUDY    37  25  61 S6        30.22S
WOOSTER        FAIR      36  26  67 SE3       30.23R
MANSFIELD      FAIR      36  26  67 SE10      30.18F
YOUNGSTOWN     PTSUNNY   36  27  69 SE6       30.23S
$$

OHZ042-051>053-060>062-070>072-077>081-041700-
  SOUTHWEST OHIO

CITY           SKY/WX    TMP DP  RH WIND       PRES   REMARKS
CINC-COVINGTON CLOUDY    40  30  67 SE12      30.11F
CINC-LUNKEN    CLOUDY    41  30  65 E7        30.16F
HAMILTON       CLOUDY    42  28  57 E7        30.16F
DAYTON         CLOUDY    38  28  67 SE12      30.15F
WRIGHT-PAT AFB FAIR      39  29  68 SE10      30.15F
DAYTON GENERAL CLOUDY    38  27  64 SE7       30.14F
WILMINGTON     PTSUNNY   37  30  75 SE12      30.14F
$$

OHZ036-037-039>041-045>050-054>059-063>069-073>076-082>088-041700-
  CENTRAL AND SOUTHEAST OHIO

CITY           SKY/WX    TMP DP  RH WIND       PRES   REMARKS
COLUMBUS       CLOUDY    38  29  70 E9        30.18F
OSU AIRPORT    FAIR      38  28  67 SE8       30.18F
BOLTON FIELD   MOSUNNY   37  28  70 E8        30.18F
RICKENBACK AFB FAIR      38  29  70 E8        30.18F
NEWARK         FAIR      38  26  62 SE8       30.19F
MARION         FAIR      37  26  64 S10       30.19F
LANCASTER      FAIR      39  29  67 E7        30.18F
ZANESVILLE     FAIR      38  26  62 E8        30.21F
NEW PHILLY     FAIR      37  28  70 VRB3      30.24F
$$




USA.gov is the U.S. government's official web portal to all federal, state and local government web resources and services.